sat.trackr.live / text

‹ back to catalog

STARLINK-6082

NORAD 56110 · 2023-046T

PAYLOAD ACTIVE UNKNOWN

§ Identity

Operator
Country
US
Launch date
2023-03-29
Launch site
AFETR
Launch vehicle
Mass (kg)
RCS (m²)

Purposes: comms

External: N2YO · Heavens-Above · Gunter

§ Orbital elements

Epoch: 2026-05-25T03:42:22.508352Z

Period
94.27 min
Inclination
43.0038°
Eccentricity
0.0000815
Mean motion
15.27566250 rev/d
Perigee alt
482.5 km
Apogee alt
483.6 km
Semi-major
6,861.2 km
B*
7.8864e-5
RAAN
89.9024°
Arg perigee
266.5828°
Mean anomaly
93.4930°
Rev number
17,372

§ Raw data

STARLINK-60821 56110U 23046T   26145.15442718  .00001908  00000+0  78864-4 0  99922 56110  43.0038  89.9024 0000815 266.5828  93.4930 15.27566250173723

JSON: /api/v1/satellites/56110 · /tle

For live sub-satellite position, see the globe view (requires WebGL).

§ Visibility from observer

Set your observer location to see the next 7 days of passes ≥ 10°. The values pass through the URL so the page stays shareable.

No JS? Fill the form by hand. The geolocation button needs JavaScript.